Starlink 33645

operational
NORAD ID: 63412 Int'l Des: 2025-065 Owner: SPXS Country: US Constellation: starlink
LEOCIRCULAR

About Starlink 33645

Description loading...

Live Position

Loading 3D Globe...

Upcoming Passes

Altitude History

Altitude vs Time

uPlot chart will show altitude changes over time

Two-Line Element Set

1 63412U 25065P 25300.57405903 .00037938 00000-0 13800-2 0 9991
2 63412 42.9968 142.0521 0001217 279.7622 80.3092 15.27606336 32441
Epoch: Oct 27, 2025 • Age: 43 hours

Current Status

Altitude 494.2 km
Velocity 7.62 km/s
Sub-Earth Point -40.50°S, 159.11°W
Launch Date Mar 31, 2025
Age 0.5 years
Type internet

Technical Details

Classification Payload
Mass 575.00 kg
Dry Mass 530.00 kg
Total Mass 575.00 kg
Length 0.30 m
Diameter 4.10 m
Span 29.00 m
Shape Box + pan
Manufacturer SPXS
Bus Type Starlink V2MO
Phase Status In Orbit
Owner/State SPXS/US

Large Constellations

Loading constellations...